�������l�o���
Date,Time,MP-1(��Sv/h),MP-2(��Sv/h),MP-3(��Sv/h),MP-4(��Sv/h),MP-5(��Sv/h),MP-6(��Sv/h),MP-7(��Sv/h),MP-8(��Sv/h),����,����(m/s),���J
2019/03/14,00:00,0.751,1.102,0.759,1.404,1.000,0.434,0.767,0.730,��,6.5,��
2019/03/14,00:10,0.751,1.100,0.760,1.405,1.001,0.434,0.769,0.731,��,6.9,��
2019/03/14,00:20,0.748,1.098,0.761,1.403,1.001,0.433,0.768,0.730,��,8.0,��
2019/03/14,00:30,0.749,1.098,0.759,1.405,1.000,0.432,0.767,0.729,��,6.5,��
2019/03/14,00:40,0.749,1.098,0.761,1.404,1.000,0.433,0.767,0.729,��,6.6,��
2019/03/14,00:50,0.749,1.100,0.759,1.405,1.001,0.435,0.767,0.730,���쐼,6.0,��
2019/03/14,01:00,0.749,1.100,0.760,1.406,1.001,0.432,0.768,0.729,���쐼,7.3,��
2019/03/14,01:10,0.749,1.098,0.758,1.405,0.997,0.433,0.767,0.729,�쐼,7.0,��
2019/03/14,01:20,0.749,1.097,0.760,1.403,1.002,0.434,0.766,0.731,���쐼,6.3,��
2019/03/14,01:30,0.748,1.096,0.761,1.402,1.002,0.434,0.769,0.729,���쐼,5.8,��
2019/03/14,01:40,0.749,1.098,0.760,1.404,1.000,0.435,0.767,0.730,���쐼,4.7,��
2019/03/14,01:50,0.748,1.098,0.757,1.404,1.000,0.434,0.768,0.731,���k��,2.8,��
2019/03/14,02:00,0.748,1.098,0.759,1.402,1.000,0.432,0.768,0.729,�k��,1.2,��
2019/03/14,02:10,0.748,1.098,0.757,1.401,0.999,0.433,0.768,0.731,�k,2.5,��
2019/03/14,02:20,0.751,1.099,0.758,1.402,1.002,0.432,0.767,0.728,�k�k��,2.2,��
2019/03/14,02:30,0.747,1.097,0.759,1.404,0.999,0.434,0.767,0.729,�k�k��,1.5,��
2019/03/14,02:40,0.750,1.097,0.758,1.403,1.000,0.434,0.767,0.728,���쐼,2.0,��
2019/03/14,02:50,0.750,1.099,0.759,1.403,1.000,0.435,0.769,0.729,��,5.4,��
2019/03/14,03:00,0.747,1.097,0.759,1.402,1.002,0.434,0.768,0.729,���쐼,8.8,��
2019/03/14,03:10,0.748,1.097,0.760,1.402,1.000,0.434,0.770,0.728,���쐼,8.5,��
2019/03/14,03:20,0.750,1.096,0.760,1.405,0.999,0.435,0.768,0.729,���쐼,9.4,��
2019/03/14,03:30,0.747,1.098,0.758,1.404,0.998,0.433,0.767,0.729,���쐼,8.9,��
2019/03/14,03:40,0.749,1.098,0.758,1.404,1.001,0.435,0.768,0.728,���쐼,8.8,��
2019/03/14,03:50,0.747,1.095,0.757,1.405,0.999,0.432,0.766,0.730,���쐼,9.2,��
2019/03/14,04:00,0.748,1.096,0.759,1.402,0.998,0.432,0.767,0.729,���쐼,9.7,��
2019/03/14,04:10,0.748,1.096,0.758,1.405,0.998,0.432,0.767,0.729,���쐼,7.6,��
2019/03/14,04:20,0.748,1.097,0.757,1.405,0.997,0.432,0.768,0.729,���쐼,8.0,��
2019/03/14,04:30,0.748,1.095,0.756,1.404,0.998,0.432,0.768,0.730,���쐼,8.7,��
2019/03/14,04:40,0.744,1.096,0.756,1.405,0.999,0.434,0.769,0.728,���쐼,8.9,��
2019/03/14,04:50,0.747,1.097,0.759,1.404,0.995,0.433,0.768,0.730,���쐼,9.6,��
2019/03/14,05:00,0.747,1.097,0.757,1.407,0.997,0.434,0.770,0.731,���쐼,8.7,��
2019/03/14,05:10,0.749,1.096,0.759,1.403,0.997,0.434,0.768,0.731,���쐼,9.9,��
2019/03/14,05:20,0.747,1.099,0.759,1.404,0.998,0.434,0.768,0.730,���쐼,9.3,��
2019/03/14,05:30,0.746,1.097,0.758,1.404,0.997,0.434,0.768,0.731,���쐼,10.0,��
2019/03/14,05:40,0.750,1.098,0.758,1.405,0.998,0.433,0.768,0.728,��,9.6,��
2019/03/14,05:50,0.748,1.098,0.758,1.405,0.999,0.434,0.768,0.729,���쐼,8.6,��
2019/03/14,06:00,0.749,1.098,0.759,1.403,0.999,0.434,0.768,0.730,���쐼,9.5,��
2019/03/14,06:10,0.749,1.096,0.760,1.404,0.999,0.435,0.769,0.729,��,10.2,��
2019/03/14,06:20,0.749,1.098,0.759,1.403,1.003,0.434,0.767,0.730,��,9.9,��
2019/03/14,06:30,0.750,1.098,0.759,1.405,1.002,0.435,0.769,0.730,���쐼,12.4,��
2019/03/14,06:40,0.749,1.099,0.759,1.403,0.999,0.436,0.768,0.731,���쐼,11.1,��
2019/03/14,06:50,0.750,1.097,0.759,1.403,1.001,0.434,0.770,0.730,���쐼,10.5,��
2019/03/14,07:00,0.749,1.097,0.760,1.405,1.002,0.435,0.769,0.730,���쐼,10.9,��
2019/03/14,07:10,0.748,1.098,0.759,1.405,1.002,0.434,0.768,0.730,���쐼,9.9,��
2019/03/14,07:20,0.749,1.098,0.759,1.406,1.002,0.435,0.770,0.731,��,11.6,��
2019/03/14,07:30,0.750,1.098,0.759,1.405,1.001,0.434,0.769,0.731,���쐼,9.6,��
2019/03/14,07:40,0.751,1.099,0.760,1.405,1.002,0.434,0.770,0.731,��,13.8,��
2019/03/14,07:50,0.749,1.100,0.760,1.405,1.005,0.435,0.769,0.731,��,13.3,��
2019/03/14,08:00,0.751,1.099,0.760,1.403,1.007,0.435,0.770,0.731,��,13.0,��
2019/03/14,08:10,0.750,1.099,0.758,1.406,1.005,0.435,0.768,0.731,��,13.1,��
2019/03/14,08:20,0.751,1.099,0.761,1.405,1.005,0.435,0.768,0.731,��,11.1,��
2019/03/14,08:30,0.751,1.096,0.760,1.404,1.003,0.435,0.770,0.731,���k��,12.7,��
2019/03/14,08:40,0.751,1.099,0.762,1.406,1.004,0.436,0.769,0.731,��,13.5,��
2019/03/14,08:50,0.750,1.101,0.760,1.405,1.006,0.435,0.769,0.731,��,15.2,��
2019/03/14,09:00,0.754,1.100,0.760,1.405,1.005,0.436,0.769,0.729,��,12.7,��
2019/03/14,09:10,0.753,1.100,0.760,1.408,1.004,0.435,0.770,0.733,���k��,12.4,��
2019/03/14,09:20,0.752,1.099,0.761,1.405,1.004,0.435,0.770,0.731,���k��,13.8,��
2019/03/14,09:30,0.753,1.100,0.760,1.409,1.002,0.435,0.770,0.732,��,15.2,��
2019/03/14,09:40,0.752,1.104,0.759,1.407,1.002,0.436,0.768,0.732,��,13.8,��
2019/03/14,09:50,0.752,1.101,0.760,1.408,1.007,0.434,0.768,0.732,��,11.6,��
2019/03/14,10:00,0.751,1.102,0.761,1.412,1.006,0.436,0.768,0.731,��,10.2,��
2019/03/14,10:10,0.754,1.104,0.763,1.408,1.006,0.436,0.769,0.730,��,10.8,��
2019/03/14,10:20,0.751,1.103,0.763,1.410,1.007,0.436,0.768,0.731,���k��,15.7,��
2019/03/14,10:30,0.752,1.099,0.762,1.410,1.004,0.435,0.767,0.731,��,13.9,��
2019/03/14,10:40,0.751,1.102,0.763,1.411,1.005,0.436,0.768,0.733,��,11.3,��
2019/03/14,10:50,0.754,1.102,0.763,1.410,1.009,0.435,0.768,0.730,��,9.5,��
2019/03/14,11:00,0.752,1.105,0.764,1.408,1.008,0.436,0.767,0.730,���k��,12.2,��
2019/03/14,11:10,0.754,1.104,0.764,1.413,1.007,0.435,0.767,0.729,��,10.0,��
2019/03/14,11:20,0.753,1.104,0.761,1.412,1.009,0.434,0.768,0.729,��,11.4,��
2019/03/14,11:30,0.753,1.103,0.763,1.411,1.007,0.436,0.768,0.731,��,9.9,��
2019/03/14,11:40,0.755,1.103,0.764,1.412,1.009,0.434,0.767,0.731,���k��,12.4,��
2019/03/14,11:50,0.757,1.101,0.763,1.409,1.009,0.435,0.768,0.731,���k��,11.8,��
2019/03/14,12:00,0.754,1.102,0.766,1.413,1.010,0.436,0.768,0.728,���k��,12.2,��
2019/03/14,12:10,0.754,1.103,0.766,1.414,1.010,0.435,0.770,0.729,���k��,11.6,��
2019/03/14,12:20,0.755,1.101,0.764,1.413,1.005,0.436,0.769,0.732,���k��,13.0,��
2019/03/14,12:30,0.757,1.105,0.765,1.414,1.010,0.436,0.769,0.731,���k��,13.6,��
2019/03/14,12:40,0.754,1.105,0.764,1.415,1.009,0.436,0.769,0.732,���k��,11.6,��
2019/03/14,12:50,0.756,1.107,0.764,1.413,1.010,0.436,0.769,0.732,���k��,12.4,��
2019/03/14,13:00,0.754,1.102,0.765,1.415,1.008,0.437,0.770,0.732,���k��,8.0,��
2019/03/14,13:10,0.755,1.103,0.764,1.414,1.009,0.436,0.768,0.731,���k��,11.1,��
2019/03/14,13:20,0.753,1.105,0.765,1.414,1.009,0.437,0.769,0.730,���k��,11.3,��
2019/03/14,13:30,0.756,1.104,0.765,1.415,1.009,0.436,0.769,0.730,���k��,8.2,��
2019/03/14,13:40,0.751,1.104,0.767,1.418,1.009,0.436,0.769,0.731,���k��,8.9,��
2019/03/14,13:50,0.754,1.095,0.763,1.419,1.009,0.435,0.769,0.730,��,9.2,��
2019/03/14,14:00,0.757,1.091,0.765,1.417,1.010,0.437,0.769,0.730,���k��,9.0,��
2019/03/14,14:10,0.756,1.092,0.766,1.416,1.011,0.436,0.769,0.729,��,7.8,��
2019/03/14,14:20,0.755,1.089,0.766,1.417,1.011,0.435,0.769,0.731,��,7.5,��
2019/03/14,14:30,0.756,1.094,0.764,1.417,1.010,0.436,0.769,0.730,���k��,8.1,��
2019/03/14,14:40,0.754,1.094,0.766,1.418,1.012,0.435,0.769,0.729,���k��,7.9,��
2019/03/14,14:50,0.757,1.100,0.764,1.417,1.011,0.436,0.771,0.730,���k��,7.8,��
2019/03/14,15:00,0.758,1.104,0.765,1.417,1.013,0.436,0.769,0.729,���k��,9.0,��
2019/03/14,15:10,0.755,1.105,0.767,1.417,1.013,0.437,0.769,0.729,��,4.9,��
2019/03/14,15:20,0.757,1.111,0.768,1.417,1.013,0.438,0.769,0.729,���k��,5.7,��
2019/03/14,15:30,0.757,1.108,0.767,1.416,1.013,0.437,0.769,0.730,��,7.3,��
2019/03/14,15:40,0.756,1.110,0.766,1.415,1.012,0.438,0.769,0.729,��,7.4,��
2019/03/14,15:50,0.758,1.111,0.767,1.419,1.013,0.437,0.769,0.729,���쐼,6.6,��
2019/03/14,16:00,0.756,1.112,0.765,1.418,1.011,0.438,0.769,0.729,��,5.7,��
2019/03/14,16:10,0.758,1.113,0.765,1.419,1.010,0.436,0.767,0.731,��,5.8,��
2019/03/14,16:20,0.756,1.115,0.768,1.418,1.012,0.435,0.769,0.733,��,8.2,��
2019/03/14,16:30,0.756,1.115,0.768,1.419,1.012,0.437,0.768,0.732,��,8.7,��
2019/03/14,16:40,0.757,1.113,0.766,1.418,1.012,0.437,0.767,0.734,��,8.0,��
2019/03/14,16:50,0.755,1.114,0.766,1.418,1.013,0.436,0.770,0.732,��,7.1,��
2019/03/14,17:00,0.756,1.112,0.767,1.419,1.013,0.435,0.769,0.733,���쐼,7.5,��
2019/03/14,17:10,0.757,1.114,0.766,1.417,1.012,0.436,0.771,0.731,���쐼,6.6,��
2019/03/14,17:20,0.756,1.116,0.768,1.418,1.014,0.437,0.771,0.732,���쐼,5.8,��
2019/03/14,17:30,0.758,1.113,0.765,1.419,1.012,0.437,0.770,0.733,��,7.6,��
2019/03/14,17:40,0.757,1.114,0.765,1.419,1.017,0.435,0.772,0.731,��,7.0,��
2019/03/14,17:50,0.757,1.113,0.766,1.419,1.014,0.436,0.770,0.731,��,6.4,��
2019/03/14,18:00,0.759,1.115,0.767,1.417,1.014,0.435,0.771,0.731,��,7.8,��
2019/03/14,18:10,0.758,1.113,0.766,1.418,1.014,0.437,0.769,0.732,��,7.6,��
2019/03/14,18:20,0.756,1.115,0.767,1.419,1.016,0.436,0.771,0.732,��,6.6,��
2019/03/14,18:30,0.757,1.114,0.765,1.419,1.012,0.436,0.771,0.732,��,6.1,��
2019/03/14,18:40,0.756,1.113,0.766,1.418,1.013,0.436,0.771,0.731,��,5.1,��
2019/03/14,18:50,0.756,1.113,0.766,1.418,1.013,0.437,0.770,0.733,���k��,4.1,��
2019/03/14,19:00,0.758,1.115,0.767,1.419,1.015,0.435,0.770,0.731,���쐼,2.8,��
2019/03/14,19:10,0.756,1.114,0.766,1.417,1.015,0.437,0.768,0.732,���k��,3.2,��
2019/03/14,19:20,0.756,1.112,0.766,1.418,1.013,0.435,0.771,0.732,���k��,3.8,��
2019/03/14,19:30,0.757,1.115,0.765,1.417,1.013,0.437,0.769,0.730,��,4.2,��
2019/03/14,19:40,0.756,1.113,0.765,1.419,1.014,0.436,0.770,0.731,��,5.0,��
2019/03/14,19:50,0.757,1.113,0.766,1.419,1.012,0.434,0.769,0.730,��,4.9,��
2019/03/14,20:00,0.756,1.112,0.767,1.419,1.015,0.437,0.769,0.730,��,4.1,��
2019/03/14,20:10,0.755,1.113,0.764,1.418,1.012,0.435,0.770,0.731,���k��,2.8,��
2019/03/14,20:20,0.755,1.113,0.765,1.419,1.016,0.434,0.769,0.732,��,3.7,��
2019/03/14,20:30,0.757,1.113,0.765,1.417,1.014,0.437,0.769,0.730,��,4.3,��
2019/03/14,20:40,0.755,1.114,0.767,1.417,1.012,0.434,0.770,0.731,��,4.7,��
2019/03/14,20:50,0.754,1.113,0.765,1.415,1.011,0.436,0.770,0.730,��,5.5,��
2019/03/14,21:00,0.756,1.112,0.765,1.418,1.010,0.435,0.771,0.730,���k��,5.6,��
2019/03/14,21:10,0.755,1.112,0.764,1.416,1.013,0.435,0.770,0.731,���k��,5.4,��
2019/03/14,21:20,0.755,1.112,0.766,1.416,1.012,0.436,0.769,0.730,���k��,3.8,��
2019/03/14,21:30,0.757,1.113,0.764,1.418,1.015,0.435,0.770,0.731,��,3.7,��
2019/03/14,21:40,0.756,1.113,0.766,1.417,1.013,0.434,0.771,0.731,���k��,4.0,��
2019/03/14,21:50,0.757,1.113,0.765,1.418,1.011,0.435,0.771,0.732,�k��,4.6,��
2019/03/14,22:00,0.755,1.115,0.766,1.419,1.012,0.435,0.770,0.731,���k��,3.8,��
2019/03/14,22:10,0.754,1.114,0.765,1.417,1.014,0.436,0.770,0.730,���k��,4.4,��
2019/03/14,22:20,0.755,1.111,0.764,1.414,1.013,0.435,0.769,0.731,�k��,4.4,��
2019/03/14,22:30,0.754,1.110,0.764,1.413,1.015,0.435,0.770,0.731,�k��,3.7,��
2019/03/14,22:40,0.757,1.112,0.766,1.416,1.012,0.434,0.768,0.729,�k��,3.0,��
2019/03/14,22:50,0.754,1.112,0.765,1.416,1.012,0.433,0.770,0.732,�k��,2.6,��
2019/03/14,23:00,0.755,1.112,0.764,1.416,1.011,0.434,0.768,0.730,�k��,3.2,��
2019/03/14,23:10,0.753,1.114,0.764,1.417,1.012,0.434,0.769,0.731,���k��,1.2,��
2019/03/14,23:20,0.754,1.111,0.765,1.415,1.014,0.433,0.767,0.732,��,0.9,��
2019/03/14,23:30,0.754,1.112,0.766,1.416,1.013,0.434,0.769,0.729,���k��,0.9,��
2019/03/14,23:40,0.754,1.110,0.765,1.418,1.013,0.433,0.767,0.729,���쐼,1.2,��
2019/03/14,23:50,0.755,1.111,0.763,1.417,1.013,0.435,0.769,0.731,���k��,1.4,��
